Location: Aldenham
(51.6667°N, 0.3500°W)
Time: 03:21:57
(UTC+00:00)

A-11 Canister half - Pass Details

Date: 21 February 2026
Orbit: 1512 x 1687 km, 47.2° (Epoch: 7 March)

Event Time Altitude Azimuth Distance (km) Brightness Sun altitude
Rises 21:19:34 0° 243° (WSW) 4,937 12.0 -35.5°
Reaches altitude 10° 21:22:47 10° 240° (WSW) 3,946 11.4 -35.9°
Enters shadow 21:30:31 52° 209° (SSW) 2,001 9.4 -36.9°
Maximum altitude 21:32:43 62° 164° (SSE) 1,836 - -37.2°
Drops below altitude 10° 21:42:25 10° 87° (E) 3,860 - -38.3°
Sets 21:45:31 0° 84° (E) 4,824 - -38.7°
